Location: L�tisburg
(47.3947°N, 9.0820°E)
Time: 09:09:23
(UTC+00:00)

Meteor 1-23 Rocket - Pass Details

Date: 03 March 2021
Orbit: 837 x 888 km, 81.3° (Epoch: 10 April)

Event Time Altitude Azimuth Distance (km) Brightness Sun altitude
Rises 19:21:35 0° 350° (N) 3,405 7.7 -22.6°
Reaches altitude 10° 19:24:02 10° 354° (N) 2,470 6.9 -23.0°
Maximum altitude 19:29:36 66° 76° (ENE) 924 4.1 -23.9°
Enters shadow 19:30:21 59° 118° (ESE) 977 4.1 -24.0°
